Regional Weather Roundup
Issued by NWS

Home | Current Version | Previous Version | Graphics & Text | Print | Product List | Glossary On
Versions: 1 2 3 4 5 6 7 8 9 10 11 12 13 14 15 16 17 18 19 20 21 22 23 24 25 26 27 28 29 30 31 32 33 34 35 36 37 38 39 40 41 42 43 44 45 46 47 48 49 50
010
ASUS43 KLOT 101803
RWRIL

ILLINOIS REGIONAL WEATHER ROUNDUP
NATIONAL WEATHER SERVICE CHICAGO/ROMEOVILLE IL
1200 PM CST WED FEB 10 2016

NOTE: "FAIR" INDICATES FEW OR NO CLOUDS BELOW 12,000 FEET WITH NO
SIGNIFICANT WEATHER AND/OR OBSTRUCTIONS TO VISIBILITY.

* THESE STATIONS ARE NOT UNDER NWS QUALITY CONTROL. THEY ALSO MAY NOT
  REPORT WEATHER SUCH AS PRECIPITATION OR FOG.

ILZ001-002-007-009-015-016-024-101900-
NORTHWEST ILLINOIS

CITY           SKY/WX    TMP DP  RH WIND       PRES   REMARKS
MOLINE         MOSUNNY   16   2  54 NW7       30.10F WCI   6
6HR MIN TEMP:   8; 6HR MAX TEMP:  16;

STERLING*      SUNNY     18   3  53 W7        30.05F WCI   8
$$

ILZ003-004-008-010-011-017-018-101900-
NORTH CENTRAL ILLINOIS

CITY           SKY/WX    TMP DP  RH WIND       PRES   REMARKS
ROCKFORD       MOSUNNY   15   2  56 NW13G22   30.07F WCI   1
6HR MIN TEMP:   6; 6HR MAX TEMP:  15;

FREEPORT*      SUNNY     13   1  60 W13       30.07F WCI  -2
ROCHELLE*      SUNNY     15   4  62 NW13      30.06F WCI   1
DE KALB*       MOSUNNY   14   4  63 NW13      30.03F WCI   0
$$

ILZ005-006-012>014-019>023-101900-
NORTHEAST ILLINOIS

CITY           SKY/WX    TMP DP  RH WIND       PRES   REMARKS
CHICAGO-OHARE  PTSUNNY   13   2  61 NW13      30.02F WCI  -2
6HR MIN TEMP:   9; 6HR MAX TEMP:  15;

CHICAGO-MIDWAY PTSUNNY   16   1  51 NW12      30.03F WCI   3
6HR MIN TEMP:  11; 6HR MAX TEMP:  16;

AURORA         MOSUNNY   15   4  61 NW13      30.05F WCI   1
6HR MIN TEMP:   8; 6HR MAX TEMP:  16;

LANSING*       PTSUNNY   16   3  57 NW9       30.03F WCI   4
WAUKEGAN       CLOUDY    13   2  61 W8        30.01S WCI   2
6HR MIN TEMP:   7; 6HR MAX TEMP:  14;

DUPAGE AIRPORT PTSUNNY   14   2  58 NW12G17   30.02F WCI   0
6HR MIN TEMP:   4; 6HR MAX TEMP:  14; 6HR PCP: TRACE;

WHEELING       PTSUNNY   14   2  58 NW9       30.03F WCI   2
6HR MIN TEMP:   9; 6HR MAX TEMP:  15;

NORTHERLY ISL    N/A     16   3  56 W7          N/A  WCI   6
$$

LMZ740>746-101900-
SOUTHERN LAKE MICHIGAN

STATION/POSITION SKY/WX   TEMP    WIND        PRES    VSBY  WAVE
                          AIR SEA DIR/SP/G                  HT/PER
                          (F)     (DEG/KT/KT) (MB)    (MI)  (FT/S)
HARRISON CRIB              14     300/ 13/ 14   N/A
BURNHAM HARBOR             17     270/  7/ 12   N/A
CALUMET HARBOR             14     330/ 10/ 13 1016.5F
BURNS HARBOR               16     310/ 15/ 22 1017.3R
MICHIGAN CITY              17     260/ 22/ 26   N/A
$$

ILZ025>027-034>036-040-047-049-050-058-095>099-101900-
WEST-CENTRAL ILLINOIS

CITY           SKY/WX    TMP DP  RH WIND       PRES   REMARKS
QUINCY         LGT SNOW  18   9  68 W6        30.13F WCI  10
MACOMB*        CLOUDY    16   6  63 W7        30.14F WCI   6
$$

ILZ028>032-037-038-041>044-048-051>054-059>061-101900-
CENTRAL ILLINOIS

CITY           SKY/WX    TMP DP  RH WIND       PRES   REMARKS
BLOOMINGTON    MOSUNNY   17   4  56 W14       30.08F WCI   3
DECATUR        CLOUDY    19   4  51 W10       30.11F WCI   7
PEORIA         CLOUDY    17   1  49 NW10      30.11F WCI   5
6HR MIN TEMP:   8; 6HR MAX TEMP:  17;

LINCOLN*       PTSUNNY   19   6  58 W9        30.12F WCI   7
SPRINGFIELD    CLOUDY    18   5  57 W12       30.13F WCI   5
6HR MIN TEMP:   7; 6HR MAX TEMP:  19;

TAYLORVILLE    NOT AVBL
$$

ILZ033-039-045-046-055>057-062-063-101900-
EAST-CENTRAL ILLINOIS

CITY           SKY/WX    TMP DP  RH WIND       PRES   REMARKS
CHAMPAIGN      MOSUNNY   17   6  62 W14       30.09S WCI   3
MATTOON        MOSUNNY   16   4  59 W13       30.11S WCI   2
$$

ILZ079-100>102-101900-
SOUTHWEST ILLINOIS

CITY           SKY/WX    TMP DP  RH WIND       PRES   REMARKS
ALTON          CLOUDY    21   7  53 W6        30.16F WCI  14
BELLEVILLE     PTSUNNY   23   6  48 W5        30.16F WCI  17
CAHOKIA*       CLOUDY    24   4  42 NW10      30.18F WCI  14
SPARTA*        CLOUDY    21   7  53 CALM      30.18F
$$

ILZ064>066-069>071-074>076-080>082-084>086-088>090-092>094-101900-
SOUTH-CENTRAL ILLINOIS

CITY           SKY/WX    TMP DP  RH WIND       PRES   REMARKS
CARBONDALE     CLOUDY    23  10  57 SW8       30.19F WCI  14
6HR MIN TEMP:  10; 6HR MAX TEMP:  24;

MT. VERNON     CLOUDY    21   7  53 W8        30.17F WCI  12
CENTRALIA*     PTSUNNY   22   9  57 W8        30.16S WCI  12
SALEM*         MOSUNNY   22   7  53 W12       30.15F WCI  10
$$

ILZ067-068-072-073-078-083-087-091-101900-
SOUTHEAST ILLINOIS

CITY           SKY/WX    TMP DP  RH WIND       PRES   REMARKS
LAWRENCEVILLE  MOSUNNY   19   6  57 NW12      30.15F WCI   7
HARRISBURG*    CLOUDY    23  11  59 W10       30.19F WCI  13
ROBINSON*      MOSUNNY   18   6  58 NW10      30.15F WCI   6
$$

ABBREVIATIONS USED IN REMARKS
   TC - TEMPERATURE IN CELSIUS
  WCI - WIND CHILL INDEX
   HX - HEAT INDEX
  VSB - VISIBILITY
$$





USA.gov is the U.S. government's official web portal to all federal, state and local government web resources and services.